Regional Weather Roundup
Issued by NWS Sioux Falls, SD

Home | Current Version | Previous Version | Graphics & Text | Print | Product List | Glossary Off
Versions: 1 2 3 4 5 6 7 8 9 10 11 12 13 14 15 16 17 18 19 20 21 22 23 24 25 26 27 28 29 30 31 32 33 34 35 36 37 38 39 40 41 42 43 44 45 46 47 48 49 50

000
ASUS43 KFSD 190410
RWRFSD

WEATHER ROUNDUP FOR SE SOUTH DAKOTA/SW MINNESOTA/NW IOWA
NATIONAL WEATHER SERVICE SIOUX FALLS SD
1000 PM CST THU DEC 18 2014

NOTE: "FAIR" INDICATES FEW OR NO CLOUDS BELOW 12,000 FEET WITH NO
SIGNIFICANT WEATHER AND OR OBSTRUCTIONS TO VISIBILITY.


SDZ038>040-050-052>070-190500-
SOUTHEAST SOUTH DAKOTA

CITY           SKY/WX    TMP DP  RH WIND       PRES   REMARKS
CHAMBERLAIN    CLOUDY    27  25  91 S7        30.10S WCI  19
HURON          CLOUDY    27  24  89 S8        30.13S WCI  19
MADISON        CLOUDY    25  25 100 S9        30.15R WCI  15
MITCHELL       CLOUDY    28  25  88 S9        30.15F WCI  19
SIOUX FALLS    CLOUDY    27  23  85 S8        30.17S WCI  19
WINNER         FAIR      25  22  88 S7        30.07F WCI  17
YANKTON        CLOUDY    28  25  86 S8        30.19F WCI  20
$$

MNZ071-072-080-081-089-090-097-098-190500-
SOUTHWEST MINNESOTA

CITY           SKY/WX    TMP DP  RH WIND       PRES   REMARKS
FAIRMONT       CLOUDY    25  18  74 SE8       30.22S WCI  16
JACKSON        CLOUDY    27  21  80 SE7       30.20S WCI  19
LUVERNE        CLOUDY    28  27  93 S7        30.19R WCI  21
MARSHALL       CLOUDY    25  19  80 SE5       30.19S WCI  19
MONTEVIDEO     CLOUDY    21  19  93 S7        30.21F WCI  13
PIPESTONE      CLOUDY    25  25 100 S3        30.15S FOG
REDWOOD FALLS  CLOUDY    23  19  85 SE8       30.22F WCI  14
TRACY          CLOUDY    26  24  91 S3        30.18F
WINDOM         CLOUDY    25  21  86 SE5       30.20R WCI  19
WORTHINGTON    CLOUDY    25  21  86 S8        30.19R WCI  16
$$

IAZ001>003-012>014-020>022-031-032-NEZ013-014-SDZ071-190500-
NORTHWEST IOWA

CITY           SKY/WX    TMP DP  RH WIND       PRES   REMARKS
CHEROKEE       CLOUDY    28  27  94 SE3       30.22R
DENISON        CLOUDY    30  28  93 S7        30.20S WCI  23
ESTHERVILLE    CLOUDY    24  20  84 S6        30.21S WCI  17
LE MARS        CLOUDY    30  27  86 S7        30.21R WCI  23
ORANGE CITY    CLOUDY    28  25  86 S3        30.19S
SHELDON        CLOUDY    27  27 100 S6        30.19R WCI  20
SIOUX CITY     CLOUDY    30  26  85 S9        30.22R WCI  22
SPENCER        CLOUDY    27  23  85 SE6       30.21S WCI  20
STORM LAKE     CLOUDY    27  25  93 SE8       30.21S WCI  18
$$

ABBREVIATIONS USED IN REMARKS
   TC - TEMPERATURE IN CELSIUS
  WCI - WIND CHILL INDEX
   HX - HEAT INDEX
  VSB - VISIBILITY



USA.gov is the U.S. government's official web portal to all federal, state and local government web resources and services.